Regional Weather Roundup
Issued by NWS

Home | Current Version | Previous Version | Text Only | Print | Product List | Glossary Off
Versions: 1 2 3 4 5 6 7 8 9 10 11 12 13 14 15 16 17 18 19 20 21 22 23 24 25 26 27 28 29 30 31 32 33 34 35 36 37 38 39 40 41 42 43 44 45 46 47 48 49 50

000
ASUS43 KMPX 231110
RWRMN
WEATHER ROUNDUP FOR MINNESOTA
NATIONAL WEATHER SERVICE TWIN CITIES/CHANHASSEN MN
600 AM CDT SUN APR 23 2017


NOTE: "FAIR" INDICATES FEW OR NO CLOUDS BELOW 12,000 FEET WITH NO
SIGNIFICANT WEATHER AND/OR OBSTRUCTIONS TO VISIBILITY. N/A MEANS
CURRENT SKY AND/OR WEATHER CONDITIONS ARE NOT AVAILABLE.

MNZ060>063-068>070-231200-
   Twin Cities Metro

CITY           SKY/WX    TMP DP  RH WIND       PRES   REMARKS
TWIN CITIES    PTCLDY    51  36  56 W5        30.07R
ST PAUL        CLEAR     47  38  71 CALM      30.08R
CRYSTAL        CLEAR     48  34  58 NW3       30.06S
BLAINE         CLEAR     48  39  71 NE7       30.08R
LAKEVILLE      CLEAR     48  37  66 SW6       30.07S
EDEN PRAIRIE   PTCLDY    48  36  63 SW5       30.06R
SOUTH ST PAUL  CLEAR     50  36  57 W3        30.07R
LAKE ELMO      FAIR      45  37  76 CALM      30.07S
$$
MNZ001>005-007-008-013>017-022>024-027-028-231200-
   Northwest Minnesota

CITY           SKY/WX    TMP DP  RH WIND       PRES   REMARKS
BEMIDJI        CLOUDY    32  24  72 NE10      30.19R WCI  24
HALLOCK        MOCLDY    28  19  69 NE9       30.26F WCI  20
ROSEAU         CLOUDY    28  21  74 NE8       30.26F WCI  20
WARROAD        CLOUDY    30  16  55 NE16      30.26F WCI  19
THIEF RVR FALL CLOUDY    30  24  78 NE14      30.22S WCI  19
CROOKSTON      CLOUDY    32  25  74 E9G17     30.24R WCI  24
FOSSTON        CLOUDY    30  28  93 NE12      30.18F WCI  21
DETROIT LAKES  LGT SNOW  34  32  93 E13       30.15F WCI  25
MOORHEAD       CLOUDY    34  32  93 NE13      30.17F WCI  25
PARK RAPIDS    FLURRIES  34  29  82 NE9       30.15S WCI  27
MAHNOMEN       CLOUDY    32  30  92 E12       30.17R WCI  23
$$
MNZ006-009>011-018-025>026-231200-
   North Central Minnesota

CITY           SKY/WX    TMP DP  RH WIND       PRES   REMARKS
BAUDETTE       CLOUDY    28  16  60 NE12      30.25R WCI  18
FLAG ISLAND    CLOUDY    28  10  47 NE15      30.27R WCI  17
INTL FALLS     MOCLDY    29  17  61 N9        30.24R WCI  20
WASKISH        CLOUDY    30  27  86 NE7       30.24R WCI  23
BIG FORK       CLOUDY    30  25  80 NE9       30.21R WCI  22
LONGVILLE      LGT SNOW  32  32 100 N6        30.16S WCI  26
GRAND RAPIDS   LGT SNOW  30  28  93 NE7G16    30.20R VSB 3/4 WCI  23
CRANE LAKE     PTCLDY    27  21  80 N6        30.24R WCI  20
ORR            CLOUDY    28  19  69 MISG      30.19R
COOK           CLOUDY    28  21  74 N5        30.21R WCI  23
WALKER         LGT SNOW  30  29  96 N6        30.17S WCI  24
$$
MNZ012-019>021-037-231200-
   Northeast Minnesota

CITY           SKY/WX    TMP DP  RH WIND       PRES   REMARKS
DULUTH         FLURRIES  35  33  92 N9        30.14S WCI  28
ELY            CLOUDY    28  25  86 N5        30.18R WCI  23
HIBBING        LGT SNOW  30  30 100 NE6       30.17R FOG     WCI  24
EVELETH        CLOUDY    32  25  75 N10G17    30.18R WCI  24
DULUTH HARBOR  RAIN      37  36  93 NE16      30.17R
TWO HARBORS    CLOUDY    37  32  81 N3        30.15R
SILVER BAY     LGT SNOW  34  34 100 CALM      30.15R VSB 1
GRAND MARAIS     N/A     35  25  66 VRB3      30.19R
G MARAIS ARPRT CLOUDY    27  19  74 NW10      30.14R WCI  17
$$
MNZ029>031-032-039>041-046>048-054>057-064-231200-
   West Central Minnesota

CITY           SKY/WX    TMP DP  RH WIND       PRES   REMARKS
FERGUS FALLS   CLOUDY    39  36  87 NE12G20   30.11F
WHEATON        MOCLDY    39  37  93 N8        30.12F
MORRIS         PTCLDY    39  37  93 NE9       30.08S
ALEXANDRIA     CLOUDY    42  36  79 NE14      30.11R
ELBOW LAKE     FAIR      41  37  86 NE13      30.11S
WADENA         CLOUDY    36  34  93 NE10      30.14R
GLENWOOD       PTCLDY    41  37  87 NE12      30.09R
APPLETON       CLEAR     39  37  93 W5        30.09S
BENSON         CLEAR     37  34  87 CALM      30.10S FOG
ORTONVILLE     CLEAR     37  36  93 NW9       30.09S
MADISON        CLEAR     39  39 100 NW7       30.09S
WILLMAR        FAIR      41  39  93 NW6       30.09S
$$
MNZ033>034-036-042>043-049>051-058-059-231200-
   Central Minnesota

CITY           SKY/WX    TMP DP  RH WIND       PRES   REMARKS
ST CLOUD       CLOUDY    45  38  76 NE7       30.09R
SAUK CENTRE    PTSUNNY   44  37  78 NE8       30.10R
PAYNESVILLE    CLOUDY    45  39  81 N6        30.09R
AITKIN         MIX PCPN  37  34  87 N8        30.14R
PINE RIVER     LGT RAIN  36  34  93 N7        30.19R
BRAINERD       CLOUDY    38  34  85 NE15      30.14R
STAPLES        LGT RAIN  37  34  87 NE10G18   30.14R
LONG PRAIRIE   CLOUDY    41  36  81 N8        30.10R
LITTLE FALLS   LGT RAIN  43  34  70 NE9       30.11R
LITCHFIELD     CLEAR     46  39  76 NW5       30.08R
BUFFALO        CLEAR     46  38  73 N6        30.08R
MAPLE LAKE     CLEAR     46  41  82 N8        30.09R
HUTCHINSON     PTCLDY    44  38  81 W6        30.08S
$$
MNZ037-044-045-052-053-231200-
   East Central Minnesota

CITY           SKY/WX    TMP DP  RH WIND       PRES   REMARKS
PRINCETON      CLOUDY    46  39  76 NE9       30.09S
MORA           DRIZZLE   43  36  75 NE8       30.12R
CAMBRIDGE      CLOUDY    48  36  61 N6        30.08R
RUSH CITY      CLOUDY    44  37  76 N6        30.10R
MOOSE LAKE     LGT RAIN  37  36  93 N9        30.12R
HINCKLEY       CLOUDY    43  37  81 N12       30.11S
CLOQUET        FLURRIES  36  32  87 N6        30.15R
MCGREGOR       CLOUDY    37  34  87 N13       30.16R
$$
MNZ071>073-080-081-089-090-097-098-231200-
   Southwest Minnesota

CITY           SKY/WX    TMP DP  RH WIND       PRES   REMARKS
MONTEVIDEO     CLEAR     39  36  87 NW3       30.09S
GRANITE FALLS  CLEAR     38  37  93 W8        30.10S
CANBY          CLEAR     37  36  94 CALM      30.11S
MARSHALL       CLEAR     38  36  92 NW7       30.09S
REDWOOD FALLS  CLEAR     44  36  73 W8        30.07F
OLIVIA         CLEAR     41  37  87 NW5       30.07R
PIPESTONE      PTCLDY    43  30  61 SW8       30.07F
WINDOM         CLEAR     46  34  61 SW7       30.09S
WORTHINGTON    PTCLDY    48  33  56 SW13      30.10F
JACKSON        CLEAR     45  32  61 SW10      30.10S
TRACY          CLEAR     47  37  70 NW6       30.09R
SLAYTON        CLEAR     46  34  63 SW14      30.08S
$$
MNZ065>067-074>077-082>085-091>093-231200-
   South Central Minnesota

CITY           SKY/WX    TMP DP  RH WIND       PRES   REMARKS
MANKATO        PTCLDY    49  36  61 CALM      30.09S
NEW ULM        PTCLDY    46  36  66 SW8       30.07R
ST JAMES       PTCLDY    45  36  70 S6        30.09F
FAIRMONT       CLEAR     40  34  79 S6        30.11S
GLENCOE        CLEAR     46  40  79 CALM      30.07S
FARIBAULT      PTCLDY    45  37  76 CALM      30.09S
OWATONNA       PTCLDY    45  36  70 S7        30.09S
WASECA         CLOUDY    41  36  81 S3        30.10F
ALBERT LEA     CLOUDY    45  36  70 SW6       30.10F
$$
MNZ078>079-086>088-094>096-231200-
   Southeast Minnesota

CITY           SKY/WX    TMP DP  RH WIND       PRES   REMARKS
ROCHESTER      CLEAR     42  36  79 SW8       30.10S
RED WING       CLEAR     41  36  81 CALM      30.06S
STANTON        CLEAR     45  37  73 S6        30.07S
DODGE CENTER   CLEAR     43  36  75 SW9       30.09F
WINONA         CLOUDY    48  34  57 NW5       30.09S
AUSTIN         CLEAR     43  34  70 SW5       30.10S
PRESTON        CLEAR     47  32  55 SW8       30.11S
$$
ABBREVIATIONS USED IN REMARKS
   TC - TEMPERATURES IN CELSIUS
  WCI - WIND CHILL INDEX
   HX - HEAT INDEX
  VSB - VISIBILITY
$$




USA.gov is the U.S. government's official web portal to all federal, state and local government web resources and services.